Weather History for Pascagoula, MS

Change the Weather History Date:

Wednesday, December 4, 2013

  Actual Average Record
Temperature  
Mean Temperature 72 °F -  
Max Temperature 77 °F 63 °F 79 °F (1978)
Min Temperature 66 °F 45 °F 26 °F (1989)
Cooling Degree Days 6    
Growing Degree Days 22 (Base 50)    
Moisture  
Dew Point 69 °F    
Average Humidity 93    
Maximum Humidity 100    
Minimum Humidity 79    
Precipitation  
Precipitation 0.00 in - - ()
Sea Level Pressure  
Sea Level Pressure 29.92 in    
Wind  
Wind Speed 6 mph (SSW)    
Max Wind Speed 10 mph    
Max Gust Speed 22 mph    
Visibility 7 miles    
Events Fog    
Averages and records for this station are not official NWS values.
T = Trace of Precipitation, MM = Missing Value Source: NWS Daily Summary

Daily Weather History Graph

Daily Weather History Graph

Search for Another Location

Airport:

Trip Planner

Search our weather history database for the weather conditions in past years. The results will help you decide how hot, cold, wet, or windy it might be!

Date:

Astronomy

Dec. 04, 2013 Rise Set
Actual Time 6:35 AM CST 4:52 PM CST
Civil Twilight 6:09 AM CST 5:19 PM CST
Nautical Twilight 5:39 AM CST 5:48 PM CST
Astronomical Twilight 5:10 AM CST 6:18 PM CST
Moon 8:06 AM CST (12/4) 6:59 PM CST (12/4)
Length of Visible Light 11h 09m
Length of Day
10h 16m
Waxing Crescent, 4% of the Moon is Illuminated
Dec 4
Waxing Crescent
Dec 9
First Quarter
Dec 17
Full
Dec 25
Last Quarter
Jan 1
New

Hourly Weather History & Observations

Time (CST) Temp. Dew Point Humidity Pressure Visibility Wind Dir Wind Speed Gust Speed Precip Events Conditions
12:53 AM 66.9 °F 64.9 °F 93% 29.86 in 10.0 mi SSW 6.9 mph - N/A   Mostly Cloudy
1:53 AM 66.9 °F 64.9 °F 93% 29.88 in 10.0 mi SSW 4.6 mph - N/A   Mostly Cloudy
2:53 AM 66.9 °F 66.0 °F 97% 29.88 in 9.0 mi SSW 5.8 mph - N/A   Partly Cloudy
3:00 AM 66.2 °F 66.2 °F 100% 29.87 in 9.0 mi SSW 6.9 mph - N/A   Scattered Clouds
3:11 AM 66.2 °F 66.2 °F 100% 29.87 in 8.0 mi SSW 4.6 mph - N/A   Mostly Cloudy
3:53 AM 68.0 °F 66.9 °F 96% 29.88 in 6.0 mi Variable 5.8 mph - N/A   Overcast
4:53 AM 69.1 °F 68.0 °F 96% 29.88 in 3.0 mi SSW 4.6 mph - N/A   Overcast
5:11 AM 69.8 °F 68.0 °F 94% 29.88 in 2.5 mi SSW 4.6 mph - N/A   Overcast
5:53 AM 69.1 °F 68.0 °F 96% 29.90 in 1.0 mi South 5.8 mph - N/A   Overcast
6:53 AM 69.1 °F 69.1 °F 100% 29.91 in 3.0 mi SSW 4.6 mph - N/A   Overcast
7:06 AM 69.8 °F 69.8 °F 100% 29.91 in 1.8 mi SSW 3.5 mph - N/A   Overcast
7:22 AM 69.8 °F 68.0 °F 94% 29.92 in 0.5 mi SSW 5.8 mph - N/A Fog Fog
7:41 AM 69.8 °F 69.8 °F 100% 29.93 in 1.8 mi SSW 3.5 mph - N/A   Overcast
7:49 AM 69.8 °F 69.8 °F 100% 29.93 in 3.0 mi SSW 3.5 mph - N/A   Overcast
7:53 AM 69.1 °F 69.1 °F 100% 29.94 in 3.0 mi SSW 4.6 mph - N/A   Overcast
8:09 AM 69.8 °F 69.8 °F 100% 29.94 in 2.5 mi SSW 5.8 mph - N/A   Overcast
8:23 AM 69.8 °F 69.8 °F 100% 29.94 in 1.0 mi South 5.8 mph - N/A   Overcast
8:53 AM 71.1 °F 69.1 °F 93% 29.96 in 1.0 mi SSW 5.8 mph - N/A   Overcast
9:53 AM 71.1 °F 69.1 °F 93% 29.99 in 1.0 mi SW 5.8 mph - N/A   Overcast
10:00 AM 71.6 °F 69.8 °F 94% 29.98 in 2.0 mi SSW 3.5 mph - N/A   Overcast
10:31 AM 73.4 °F 69.8 °F 88% 29.98 in 4.0 mi SW 4.6 mph - N/A   Mostly Cloudy
10:53 AM 73.9 °F 70.0 °F 87% 29.98 in 4.0 mi SSW 6.9 mph - N/A   Mostly Cloudy
10:55 AM 73.4 °F 69.8 °F 88% 29.97 in 10.0 mi SSW 6.9 mph - N/A   Overcast
11:03 AM 75.2 °F 69.8 °F 83% 29.96 in 10.0 mi SSW 6.9 mph - N/A   Overcast
11:12 AM 75.2 °F 69.8 °F 83% 29.95 in 10.0 mi SSW 9.2 mph - N/A   Mostly Cloudy
11:53 AM 77.0 °F 70.0 °F 79% 29.94 in 10.0 mi Variable 5.8 mph - N/A   Overcast
12:05 PM 75.2 °F 69.8 °F 83% 29.93 in 10.0 mi SSW 9.2 mph 21.9 mph N/A   Mostly Cloudy
12:53 PM 75.0 °F 69.1 °F 82% 29.92 in 10.0 mi SSW 10.4 mph 17.3 mph N/A   Mostly Cloudy
1:04 PM 75.2 °F 69.8 °F 83% 29.91 in 10.0 mi SSW 9.2 mph - N/A   Overcast
1:15 PM 75.2 °F 69.8 °F 83% 29.90 in 10.0 mi SSW 8.1 mph - N/A   Overcast
1:53 PM 75.9 °F 70.0 °F 82% 29.91 in 10.0 mi South 9.2 mph - N/A   Overcast
2:11 PM 75.2 °F 69.8 °F 83% 29.90 in 10.0 mi SSW 9.2 mph - N/A   Overcast
2:24 PM 75.2 °F 69.8 °F 83% 29.90 in 10.0 mi SSW 8.1 mph - N/A   Mostly Cloudy
2:53 PM 75.9 °F 71.1 °F 85% 29.91 in 10.0 mi SSW 9.2 mph - N/A   Overcast
3:53 PM 75.0 °F 70.0 °F 84% 29.89 in 10.0 mi South 6.9 mph - N/A   Overcast
4:27 PM 73.4 °F 69.8 °F 88% 29.89 in 10.0 mi SSE 6.9 mph - N/A   Mostly Cloudy
4:53 PM 72.0 °F 70.0 °F 93% 29.90 in 10.0 mi SE 5.8 mph - N/A   Partly Cloudy
5:19 PM 71.6 °F 69.8 °F 94% 29.90 in 10.0 mi SSE 6.9 mph - N/A   Overcast
5:30 PM 71.6 °F 69.8 °F 94% 29.90 in 10.0 mi SSE 6.9 mph - N/A   Overcast
5:53 PM 71.1 °F 70.0 °F 96% 29.91 in 10.0 mi SSE 6.9 mph - N/A   Overcast
6:02 PM 71.6 °F 69.8 °F 94% 29.90 in 9.0 mi SSE 6.9 mph - N/A   Mostly Cloudy
6:20 PM 71.6 °F 69.8 °F 94% 29.91 in 8.0 mi SSE 5.8 mph - N/A   Overcast
6:32 PM 71.6 °F 69.8 °F 94% 29.91 in 8.0 mi SSE 4.6 mph - N/A   Overcast
6:45 PM 71.6 °F 69.8 °F 94% 29.91 in 10.0 mi SSE 5.8 mph - N/A   Overcast
6:53 PM 71.1 °F 70.0 °F 96% 29.93 in 9.0 mi SSE 4.6 mph - N/A   Overcast
7:23 PM 69.8 °F 69.8 °F 100% 29.92 in 8.0 mi Calm Calm - N/A   Mostly Cloudy
7:53 PM 70.0 °F 68.0 °F 93% 29.93 in 8.0 mi SSE 4.6 mph - N/A   Mostly Cloudy
8:41 PM 71.6 °F 69.8 °F 94% 29.94 in 10.0 mi South 5.8 mph - N/A   Overcast
8:53 PM 72.0 °F 70.0 °F 93% 29.95 in 10.0 mi South 5.8 mph - N/A   Overcast
9:53 PM 73.0 °F 71.1 °F 93% 29.97 in 10.0 mi South 8.1 mph - N/A   Overcast
10:53 PM 73.0 °F 71.1 °F 93% 29.97 in 6.0 mi SSW 9.2 mph 17.3 mph N/A   Overcast
11:29 PM 71.6 °F 71.6 °F 100% 29.97 in 2.0 mi South 10.4 mph - N/A   Overcast
11:40 PM 71.6 °F 71.6 °F 100% 29.97 in 5.0 mi South 9.2 mph - N/A   Overcast
11:53 PM 72.0 °F 71.1 °F 97% 29.98 in 2.0 mi SSW 8.1 mph 18.4 mph N/A   Overcast